Time,TemperatureF,DewpointF,PressureIn,WindDirection,WindDirectionDegrees,WindSpeedMPH,WindSpeedGustMPH,Humidity,HourlyPrecipIn,Conditions,Clouds,dailyrainin,SoftwareType,DateUTC
2013-06-25 00:04:00,58.6,54.1,29.68,SSE,165,0.0,2.0,85,0.00,,,0.00,meteohub,2013-06-25 07:04:00,
2013-06-25 00:09:00,58.6,54.5,29.68,SSE,151,0.0,1.0,86,0.00,,,0.00,meteohub,2013-06-25 07:09:00,
2013-06-25 00:14:00,58.8,54.3,29.67,ESE,117,2.0,2.0,85,0.00,,,0.00,meteohub,2013-06-25 07:14:00,
2013-06-25 00:19:00,58.8,54.3,29.68,South,176,3.0,5.0,85,0.00,,,0.00,meteohub,2013-06-25 07:19:00,
2013-06-25 00:24:00,58.8,54.3,29.68,ESE,122,1.0,5.0,85,0.00,,,0.00,meteohub,2013-06-25 07:24:00,
2013-06-25 00:29:00,58.8,54.7,29.68,SSE,167,2.0,5.0,86,0.00,,,0.00,meteohub,2013-06-25 07:29:00,
2013-06-25 00:34:00,58.8,54.3,29.68,SE,128,3.0,5.0,85,0.00,,,0.00,meteohub,2013-06-25 07:34:00,
2013-06-25 00:39:00,58.8,54.3,29.68,ESE,111,1.0,5.0,85,0.00,,,0.00,meteohub,2013-06-25 07:39:00,
2013-06-25 00:44:00,58.8,54.3,29.68,ESE,114,3.0,6.0,85,0.00,,,0.00,meteohub,2013-06-25 07:44:00,
2013-06-25 00:49:00,58.8,54.3,29.68,SE,124,2.0,6.0,85,0.00,,,0.00,meteohub,2013-06-25 07:49:00,
2013-06-25 00:54:00,58.8,54.3,29.68,ESE,108,2.0,6.0,85,0.00,,,0.00,meteohub,2013-06-25 07:54:00,
2013-06-25 01:00:00,58.8,54.3,29.68,ESE,104,1.0,6.0,85,0.00,,,0.00,meteohub,2013-06-25 08:00:00,
2013-06-25 01:05:00,58.8,54.3,29.68,SSE,163,0.0,5.0,85,0.00,,,0.00,meteohub,2013-06-25 08:05:00,
2013-06-25 01:10:00,58.6,54.5,29.68,SE,142,0.0,5.0,86,0.00,,,0.00,meteohub,2013-06-25 08:10:00,
2013-06-25 01:14:00,58.6,54.5,29.68,SE,142,0.0,3.0,86,0.00,,,0.00,meteohub,2013-06-25 08:14:00,
2013-06-25 01:19:00,58.6,54.5,29.68,SE,139,0.0,3.0,86,0.00,,,0.00,meteohub,2013-06-25 08:19:00,
2013-06-25 01:24:00,58.6,54.1,29.67,ESE,105,0.0,4.0,85,0.00,,,0.00,meteohub,2013-06-25 08:24:00,
2013-06-25 01:29:00,58.8,54.3,29.67,ESE,108,1.0,4.0,85,0.00,,,0.00,meteohub,2013-06-25 08:29:00,
2013-06-25 01:34:00,59.0,54.1,29.67,SE,138,4.0,4.0,84,0.00,,,0.00,meteohub,2013-06-25 08:34:00,
2013-06-25 01:39:00,59.2,54.3,29.67,ESE,115,3.0,5.0,84,0.00,,,0.00,meteohub,2013-06-25 08:39:00,
2013-06-25 01:44:00,59.2,54.0,29.67,SE,135,3.0,6.0,83,0.00,,,0.00,meteohub,2013-06-25 08:44:00,
2013-06-25 01:49:00,59.4,54.1,29.67,ENE,74,5.0,6.0,83,0.00,,,0.00,meteohub,2013-06-25 08:49:00,
2013-06-25 01:54:00,59.4,53.8,29.67,ESE,118,6.0,6.0,82,0.00,,,0.00,meteohub,2013-06-25 08:54:00,
2013-06-25 01:59:00,59.4,54.1,29.67,SE,128,4.0,8.0,83,0.00,,,0.00,meteohub,2013-06-25 08:59:00,
2013-06-25 02:04:00,59.4,53.8,29.67,SSE,152,2.0,8.0,82,0.00,,,0.00,meteohub,2013-06-25 09:04:00,
2013-06-25 02:09:00,59.4,53.8,29.67,SE,132,4.0,8.0,82,0.00,,,0.00,meteohub,2013-06-25 09:09:00,
2013-06-25 02:14:00,59.4,53.8,29.67,SSE,147,0.0,7.0,82,0.00,,,0.00,meteohub,2013-06-25 09:14:00,
2013-06-25 02:19:00,59.4,54.1,29.67,SSW,193,0.0,7.0,83,0.00,,,0.00,meteohub,2013-06-25 09:19:00,
2013-06-25 02:36:00,58.8,54.3,29.67,SW,226,0.0,1.0,85,0.00,,,0.00,meteohub,2013-06-25 09:36:00,
2013-06-25 02:42:00,58.6,54.5,29.67,WSW,248,0.0,1.0,86,0.00,,,0.00,meteohub,2013-06-25 09:42:00,
2013-06-25 06:22:00,55.9,55.0,29.67,WNW,293,0.0,1.0,97,0.00,,,0.12,meteohub,2013-06-25 13:22:00,
2013-06-25 06:27:00,55.9,55.0,29.67,WNW,293,1.0,2.0,97,0.00,,,0.12,meteohub,2013-06-25 13:27:00,
2013-06-25 06:33:00,56.1,55.2,29.67,WNW,285,0.0,2.0,97,0.00,,,0.12,meteohub,2013-06-25 13:33:00,
2013-06-25 06:38:00,56.1,55.2,29.67,WNW,285,0.0,2.0,97,0.00,,,0.12,meteohub,2013-06-25 13:38:00,
2013-06-25 06:43:00,56.3,55.4,29.67,WNW,287,0.0,2.0,97,0.00,,,0.12,meteohub,2013-06-25 13:43:00,
2013-06-25 06:48:00,56.3,55.4,29.67,WNW,287,0.0,1.0,97,0.00,,,0.12,meteohub,2013-06-25 13:48:00,
2013-06-25 06:53:00,56.5,55.6,29.67,WNW,287,0.0,1.0,97,0.00,,,0.12,meteohub,2013-06-25 13:53:00,
2013-06-25 06:58:00,56.5,55.6,29.67,WNW,287,0.0,1.0,97,0.00,,,0.12,meteohub,2013-06-25 13:58:00,
2013-06-25 07:03:00,56.3,55.4,29.68,WNW,287,0.0,0.0,97,0.00,,,0.12,meteohub,2013-06-25 14:03:00,
2013-06-25 07:08:00,56.3,55.4,29.68,WNW,287,0.0,0.0,97,0.00,,,0.12,meteohub,2013-06-25 14:08:00,
2013-06-25 07:13:00,56.1,55.2,29.68,WNW,287,0.0,0.0,97,0.00,,,0.12,meteohub,2013-06-25 14:13:00,
2013-06-25 07:18:00,56.1,55.2,29.69,SW,226,0.0,0.0,97,0.01,,,0.13,meteohub,2013-06-25 14:18:00,
2013-06-25 07:23:00,56.1,55.2,29.69,SSW,198,0.0,1.0,97,0.03,,,0.15,meteohub,2013-06-25 14:23:00,
2013-06-25 07:28:00,56.1,55.2,29.70,South,188,0.0,1.0,97,0.08,,,0.20,meteohub,2013-06-25 14:28:00,
2013-06-25 07:33:00,56.1,55.2,29.69,West,271,0.0,1.0,97,0.12,,,0.22,meteohub,2013-06-25 14:33:00,
2013-06-25 07:38:00,56.1,55.2,29.70,WNW,293,0.0,1.0,97,0.13,,,0.25,meteohub,2013-06-25 14:38:00,
2013-06-25 07:43:00,56.3,55.8,29.70,WNW,288,1.0,1.0,98,0.14,,,0.26,meteohub,2013-06-25 14:43:00,
2013-06-25 07:48:00,56.3,55.8,29.69,West,277,0.0,1.0,98,0.15,,,0.27,meteohub,2013-06-25 14:48:00,
2013-06-25 07:53:00,56.5,55.9,29.69,NNE,26,1.0,1.0,98,0.17,,,0.29,meteohub,2013-06-25 14:53:00,
2013-06-25 07:59:00,56.5,55.9,29.69,ENE,74,0.0,1.0,98,0.17,,,0.29,meteohub,2013-06-25 14:59:00,
2013-06-25 08:04:00,56.7,55.8,29.69,ENE,75,0.0,2.0,97,0.17,,,0.29,meteohub,2013-06-25 15:04:00,
2013-06-25 08:09:00,56.7,55.8,29.70,West,267,4.0,4.0,97,0.18,,,0.30,meteohub,2013-06-25 15:09:00,
2013-06-25 08:14:00,56.7,55.8,29.70,West,274,4.0,5.0,97,0.18,,,0.30,meteohub,2013-06-25 15:14:00,
2013-06-25 08:19:00,56.8,55.8,29.70,WNW,298,1.0,11.0,96,0.17,,,0.30,meteohub,2013-06-25 15:19:00,
2013-06-25 08:24:00,56.8,55.8,29.71,SW,235,0.0,11.0,96,0.13,,,0.30,meteohub,2013-06-25 15:24:00,
2013-06-25 08:29:00,56.8,55.8,29.71,East,98,1.0,11.0,96,0.09,,,0.30,meteohub,2013-06-25 15:29:00,
2013-06-25 08:34:00,57.0,56.1,29.71,WNW,287,0.0,7.0,97,0.07,,,0.31,meteohub,2013-06-25 15:34:00,
2013-06-25 08:39:00,57.0,56.1,29.71,West,262,1.0,2.0,97,0.07,,,0.31,meteohub,2013-06-25 15:39:00,
2013-06-25 08:44:00,57.0,56.1,29.72,NW,307,1.0,2.0,97,0.06,,,0.33,meteohub,2013-06-25 15:44:00,
2013-06-25 08:49:00,57.2,56.3,29.72,WNW,297,0.0,2.0,97,0.05,,,0.33,meteohub,2013-06-25 15:49:00,
2013-06-25 08:54:00,57.4,56.5,29.72,ESE,108,2.0,2.0,97,0.04,,,0.33,meteohub,2013-06-25 15:54:00,
2013-06-25 08:59:00,57.7,56.8,29.71,ESE,118,2.0,3.0,97,0.04,,,0.33,meteohub,2013-06-25 15:59:00,
2013-06-25 09:04:00,58.1,56.7,29.71,East,94,1.0,3.0,95,0.03,,,0.33,meteohub,2013-06-25 16:04:00,
2013-06-25 09:09:00,58.8,57.9,29.71,ESE,111,2.0,3.0,97,0.03,,,0.33,meteohub,2013-06-25 16:09:00,
2013-06-25 09:14:00,59.2,57.7,29.71,SSW,201,0.0,3.0,95,0.03,,,0.33,meteohub,2013-06-25 16:14:00,
2013-06-25 09:20:00,60.1,59.0,29.71,South,191,0.0,3.0,96,0.03,,,0.33,meteohub,2013-06-25 16:20:00,
2013-06-25 09:25:00,60.6,58.8,29.71,SSE,152,1.0,3.0,94,0.03,,,0.33,meteohub,2013-06-25 16:25:00,
2013-06-25 09:30:00,61.0,59.0,29.71,SSW,212,0.0,2.0,93,0.02,,,0.33,meteohub,2013-06-25 16:30:00,
2013-06-25 09:35:00,61.0,58.3,29.71,SSW,208,0.0,3.0,91,0.02,,,0.33,meteohub,2013-06-25 16:35:00,
2013-06-25 09:40:00,61.0,58.3,29.71,SW,229,1.0,3.0,91,0.01,,,0.33,meteohub,2013-06-25 16:40:00,
2013-06-25 09:45:00,61.0,58.3,29.71,ESE,122,1.0,3.0,91,0.00,,,0.33,meteohub,2013-06-25 16:45:00,
2013-06-25 09:50:00,61.2,57.9,29.71,SSE,149,1.0,4.0,89,0.00,,,0.33,meteohub,2013-06-25 16:50:00,
2013-06-25 09:55:00,61.3,58.1,29.71,SE,124,1.0,4.0,89,0.00,,,0.33,meteohub,2013-06-25 16:55:00,
2013-06-25 10:00:00,61.9,58.3,29.71,SW,218,1.0,3.0,88,0.00,,,0.33,meteohub,2013-06-25 17:00:00,
2013-06-25 10:05:00,62.2,57.9,29.70,SE,135,1.0,2.0,86,0.00,,,0.33,meteohub,2013-06-25 17:05:00,
2013-06-25 10:10:00,62.2,58.3,29.71,South,173,0.0,2.0,87,0.00,,,0.33,meteohub,2013-06-25 17:10:00,
2013-06-25 10:15:00,62.8,58.3,29.71,SSW,197,1.0,2.0,85,0.00,,,0.33,meteohub,2013-06-25 17:15:00,
2013-06-25 10:20:00,63.3,57.7,29.71,SSE,166,1.0,2.0,82,0.00,,,0.33,meteohub,2013-06-25 17:20:00,
2013-06-25 10:25:00,63.7,58.1,29.71,ESE,113,0.0,3.0,82,0.00,,,0.33,meteohub,2013-06-25 17:25:00,
2013-06-25 10:30:00,63.7,57.4,29.71,South,183,1.0,3.0,80,0.00,,,0.33,meteohub,2013-06-25 17:30:00,
2013-06-25 10:35:00,64.0,58.1,29.71,South,186,0.0,3.0,81,0.00,,,0.33,meteohub,2013-06-25 17:35:00,
2013-06-25 10:41:00,64.6,57.9,29.71,SSW,205,0.0,3.0,79,0.00,,,0.33,meteohub,2013-06-25 17:41:00,
2013-06-25 10:46:00,65.1,57.4,29.71,ESE,112,1.0,3.0,76,0.00,,,0.33,meteohub,2013-06-25 17:46:00,
2013-06-25 10:51:00,65.5,57.7,29.71,SE,134,0.0,4.0,76,0.00,,,0.33,meteohub,2013-06-25 17:51:00,
2013-06-25 10:56:00,65.5,57.7,29.71,SE,125,1.0,4.0,76,0.00,,,0.33,meteohub,2013-06-25 17:56:00,
2013-06-25 11:01:00,65.5,57.7,29.71,SSW,203,1.0,4.0,76,0.00,,,0.33,meteohub,2013-06-25 18:01:00,
2013-06-25 11:06:00,65.7,58.3,29.71,East,84,2.0,3.0,77,0.00,,,0.33,meteohub,2013-06-25 18:06:00,
2013-06-25 11:11:00,66.0,58.3,29.71,SE,146,1.0,5.0,76,0.00,,,0.33,meteohub,2013-06-25 18:11:00,
2013-06-25 11:16:00,66.0,57.6,29.71,SSW,205,2.0,5.0,74,0.00,,,0.33,meteohub,2013-06-25 18:16:00,
2013-06-25 11:21:00,66.4,57.9,29.71,SSW,203,1.0,5.0,74,0.00,,,0.33,meteohub,2013-06-25 18:21:00,
2013-06-25 11:26:00,67.1,57.0,29.71,SSE,163,1.0,3.0,70,0.00,,,0.33,meteohub,2013-06-25 18:26:00,
2013-06-25 11:31:00,67.5,57.7,29.71,SSW,212,0.0,5.0,71,0.00,,,0.33,meteohub,2013-06-25 18:31:00,
2013-06-25 11:36:00,67.8,57.2,29.71,SSW,204,1.0,9.0,69,0.00,,,0.33,meteohub,2013-06-25 18:36:00,
2013-06-25 11:41:00,68.7,58.1,29.71,WNW,299,0.0,9.0,69,0.00,,,0.33,meteohub,2013-06-25 18:41:00,
2013-06-25 11:46:00,70.0,58.5,29.71,South,184,0.0,9.0,67,0.00,,,0.33,meteohub,2013-06-25 18:46:00,
2013-06-25 11:51:00,70.7,58.3,29.71,South,180,1.0,5.0,65,0.00,,,0.33,meteohub,2013-06-25 18:51:00,
2013-06-25 11:56:00,71.2,58.8,29.72,SSW,205,0.0,2.0,65,0.00,,,0.33,meteohub,2013-06-25 18:56:00,
2013-06-25 12:01:00,71.2,57.9,29.72,SE,138,1.0,2.0,63,0.00,,,0.33,meteohub,2013-06-25 19:01:00,
2013-06-25 12:06:00,70.5,58.1,29.72,SSE,155,1.0,3.0,65,0.00,,,0.33,meteohub,2013-06-25 19:06:00,
2013-06-25 12:11:00,70.7,59.2,29.72,South,187,0.0,3.0,67,0.00,,,0.33,meteohub,2013-06-25 19:11:00,
2013-06-25 12:17:00,71.1,58.6,29.72,South,190,1.0,2.0,65,0.00,,,0.33,meteohub,2013-06-25 19:17:00,
2013-06-25 12:22:00,71.4,58.1,29.72,SSE,152,0.0,2.0,63,0.00,,,0.33,meteohub,2013-06-25 19:22:00,
2013-06-25 12:27:00,71.6,57.4,29.72,SSW,205,1.0,2.0,61,0.00,,,0.33,meteohub,2013-06-25 19:27:00,
2013-06-25 12:32:00,71.4,56.8,29.72,SE,145,1.0,4.0,60,0.00,,,0.33,meteohub,2013-06-25 19:32:00,
2013-06-25 12:37:00,71.8,58.1,29.72,SSE,152,1.0,4.0,62,0.00,,,0.33,meteohub,2013-06-25 19:37:00,
2013-06-25 12:42:00,72.1,57.6,29.72,SSE,164,1.0,2.0,60,0.00,,,0.33,meteohub,2013-06-25 19:42:00,
2013-06-25 12:47:00,72.7,57.6,29.72,South,174,1.0,2.0,59,0.00,,,0.33,meteohub,2013-06-25 19:47:00,
2013-06-25 12:52:00,72.5,57.4,29.72,SSE,164,1.0,2.0,59,0.00,,,0.33,meteohub,2013-06-25 19:52:00,
2013-06-25 12:57:00,72.7,57.6,29.72,SE,139,0.0,3.0,59,0.00,,,0.33,meteohub,2013-06-25 19:57:00,
2013-06-25 13:02:00,72.1,56.1,29.72,SSE,156,0.0,3.0,57,0.00,,,0.33,meteohub,2013-06-25 20:02:00,
2013-06-25 13:07:00,72.1,56.5,29.72,SSW,201,1.0,3.0,58,0.00,,,0.33,meteohub,2013-06-25 20:07:00,
2013-06-25 13:12:00,72.1,56.5,29.72,WSW,256,1.0,3.0,58,0.00,,,0.33,meteohub,2013-06-25 20:12:00,
2013-06-25 13:17:00,71.8,56.7,29.72,SSE,162,1.0,3.0,59,0.00,,,0.33,meteohub,2013-06-25 20:17:00,
2013-06-25 13:22:00,71.6,56.1,29.72,SSW,212,2.0,3.0,58,0.00,,,0.33,meteohub,2013-06-25 20:22:00,
2013-06-25 13:27:00,72.0,56.8,29.72,South,174,1.0,8.0,59,0.00,,,0.33,meteohub,2013-06-25 20:27:00,
2013-06-25 13:32:00,72.7,57.0,29.72,West,278,2.0,8.0,58,0.00,,,0.33,meteohub,2013-06-25 20:32:00,
2013-06-25 13:37:00,73.2,56.1,29.72,SSE,156,1.0,8.0,55,0.00,,,0.33,meteohub,2013-06-25 20:37:00,
2013-06-25 13:42:00,73.8,56.1,29.72,SSE,166,0.0,3.0,54,0.00,,,0.33,meteohub,2013-06-25 20:42:00,
2013-06-25 13:47:00,74.5,56.3,29.72,South,169,0.0,4.0,53,0.00,,,0.33,meteohub,2013-06-25 20:47:00,
2013-06-25 13:52:00,74.5,56.3,29.72,SSW,204,1.0,4.0,53,0.00,,,0.33,meteohub,2013-06-25 20:52:00,
2013-06-25 13:57:00,74.8,56.1,29.73,SSE,160,2.0,2.0,52,0.00,,,0.33,meteohub,2013-06-25 20:57:00,
2013-06-25 14:02:00,75.0,55.6,29.72,SW,219,1.0,2.0,51,0.00,,,0.33,meteohub,2013-06-25 21:02:00,
2013-06-25 14:07:00,75.4,55.9,29.73,South,170,1.0,2.0,51,0.00,,,0.33,meteohub,2013-06-25 21:07:00,
2013-06-25 14:12:00,74.8,56.1,29.73,ESE,113,1.0,2.0,52,0.00,,,0.33,meteohub,2013-06-25 21:12:00,
2013-06-25 14:17:00,74.3,56.7,29.73,SSW,207,1.0,2.0,54,0.00,,,0.33,meteohub,2013-06-25 21:17:00,
2013-06-25 14:22:00,74.7,56.5,29.72,SSW,203,2.0,2.0,53,0.00,,,0.33,meteohub,2013-06-25 21:22:00,
2013-06-25 14:27:00,74.8,56.1,29.72,SE,129,0.0,2.0,52,0.00,,,0.33,meteohub,2013-06-25 21:27:00,
2013-06-25 14:32:00,75.4,56.5,29.72,SW,232,1.0,2.0,52,0.00,,,0.33,meteohub,2013-06-25 21:32:00,
2013-06-25 14:37:00,75.2,55.8,29.72,WNW,293,1.0,3.0,51,0.00,,,0.33,meteohub,2013-06-25 21:37:00,
2013-06-25 14:42:00,75.4,55.9,29.72,SE,131,1.0,3.0,51,0.00,,,0.33,meteohub,2013-06-25 21:42:00,
2013-06-25 14:47:00,75.6,56.7,29.72,ESE,112,2.0,3.0,52,0.00,,,0.33,meteohub,2013-06-25 21:47:00,
2013-06-25 14:52:00,72.3,55.8,29.72,ESE,114,5.0,5.0,56,0.00,,,0.33,meteohub,2013-06-25 21:52:00,
2013-06-25 14:57:00,70.3,56.3,29.72,SSW,203,1.0,7.0,61,0.00,,,0.33,meteohub,2013-06-25 21:57:00,
2013-06-25 15:02:00,71.8,56.7,29.72,SSE,148,0.0,7.0,59,0.00,,,0.33,meteohub,2013-06-25 22:02:00,
2013-06-25 15:07:00,73.2,56.7,29.72,SSE,149,1.0,7.0,56,0.00,,,0.33,meteohub,2013-06-25 22:07:00,
2013-06-25 15:12:00,73.8,56.7,29.72,SSE,160,0.0,6.0,55,0.00,,,0.33,meteohub,2013-06-25 22:12:00,
2013-06-25 15:17:00,74.3,56.7,29.72,SSE,161,0.0,3.0,54,0.00,,,0.33,meteohub,2013-06-25 22:17:00,
2013-06-25 15:22:00,73.6,56.5,29.72,East,101,4.0,4.0,55,0.00,,,0.33,meteohub,2013-06-25 22:22:00,
2013-06-25 15:27:00,72.0,57.4,29.72,West,264,1.0,5.0,60,0.00,,,0.33,meteohub,2013-06-25 22:27:00,
2013-06-25 15:32:00,72.3,56.3,29.72,South,180,1.0,5.0,57,0.00,,,0.33,meteohub,2013-06-25 22:32:00,
2013-06-25 15:37:00,73.2,55.0,29.71,SE,129,1.0,5.0,53,0.00,,,0.33,meteohub,2013-06-25 22:37:00,
2013-06-25 15:42:00,71.2,55.8,29.72,ESE,107,4.0,7.0,58,0.00,,,0.33,meteohub,2013-06-25 22:42:00,
2013-06-25 15:47:00,70.3,55.8,29.71,ESE,120,4.0,9.0,60,0.00,,,0.33,meteohub,2013-06-25 22:47:00,
2013-06-25 15:52:00,71.1,55.6,29.71,West,278,1.0,9.0,58,0.00,,,0.33,meteohub,2013-06-25 22:52:00,
2013-06-25 15:57:00,72.9,55.2,29.71,East,86,1.0,9.0,54,0.00,,,0.33,meteohub,2013-06-25 22:57:00,
2013-06-25 16:02:00,73.4,54.7,29.71,East,97,5.0,7.0,52,0.00,,,0.33,meteohub,2013-06-25 23:02:00,
2013-06-25 16:07:00,72.9,55.2,29.71,SE,124,4.0,9.0,54,0.00,,,0.33,meteohub,2013-06-25 23:07:00,
2013-06-25 16:12:00,72.0,54.3,29.71,East,96,2.0,9.0,54,0.00,,,0.33,meteohub,2013-06-25 23:12:00,
2013-06-25 16:17:00,71.8,54.7,29.71,SSW,210,1.0,9.0,55,0.00,,,0.33,meteohub,2013-06-25 23:17:00,
2013-06-25 16:22:00,71.8,53.8,29.71,East,98,4.0,7.0,53,0.00,,,0.33,meteohub,2013-06-25 23:22:00,
2013-06-25 16:27:00,70.2,55.2,29.71,ESE,103,2.0,7.0,59,0.00,,,0.33,meteohub,2013-06-25 23:27:00,
2013-06-25 16:32:00,69.1,55.6,29.71,ENE,57,5.0,7.0,62,0.00,,,0.33,meteohub,2013-06-25 23:32:00,
2013-06-25 16:37:00,67.8,55.2,29.71,NNE,19,4.0,7.0,64,0.00,,,0.33,meteohub,2013-06-25 23:37:00,
2013-06-25 16:42:00,67.5,55.2,29.71,North,354,3.0,7.0,65,0.00,,,0.33,meteohub,2013-06-25 23:42:00,
2013-06-25 16:47:00,68.5,55.0,29.71,ENE,72,2.0,7.0,62,0.00,,,0.33,meteohub,2013-06-25 23:47:00,
2013-06-25 16:52:00,69.1,55.9,29.71,ENE,70,3.0,6.0,63,0.00,,,0.33,meteohub,2013-06-25 23:52:00,
2013-06-25 16:57:00,68.9,55.4,29.71,East,97,7.0,9.0,62,0.00,,,0.33,meteohub,2013-06-25 23:57:00,
2013-06-25 17:02:00,68.7,54.7,29.71,SE,126,3.0,10.0,61,0.00,,,0.33,meteohub,2013-06-26 00:02:00,
2013-06-25 17:07:00,68.5,54.5,29.71,ENE,72,4.0,10.0,61,0.00,,,0.00,meteohub,2013-06-26 00:07:00,
2013-06-25 17:12:00,68.4,54.9,29.72,ESE,103,2.0,10.0,62,0.00,,,0.00,meteohub,2013-06-26 00:12:00,
2013-06-25 17:17:00,68.2,55.0,29.72,SE,129,5.0,7.0,63,0.00,,,0.00,meteohub,2013-06-26 00:17:00,
2013-06-25 17:22:00,68.4,55.2,29.72,SSE,158,0.0,7.0,63,0.00,,,0.00,meteohub,2013-06-26 00:22:00,
2013-06-25 17:27:00,68.2,58.1,29.73,West,281,0.0,7.0,70,0.00,,,0.00,meteohub,2013-06-26 00:27:00,
2013-06-25 17:32:00,66.6,57.2,29.75,SSE,153,4.0,7.0,72,0.02,,,0.02,meteohub,2013-06-26 00:32:00,
2013-06-25 17:37:00,63.3,57.7,29.75,West,274,3.0,6.0,82,0.05,,,0.05,meteohub,2013-06-26 00:37:00,
2013-06-25 17:42:00,61.5,57.0,29.76,SSW,212,0.0,6.0,85,0.08,,,0.08,meteohub,2013-06-26 00:42:00,
2013-06-25 17:47:00,60.3,56.7,29.76,South,172,2.0,8.0,88,0.11,,,0.11,meteohub,2013-06-26 00:47:00,
2013-06-25 17:52:00,59.5,56.3,29.76,SSW,211,0.0,8.0,89,0.13,,,0.13,meteohub,2013-06-26 00:52:00,
2013-06-25 17:57:00,59.2,56.3,29.76,West,266,1.0,6.0,90,0.14,,,0.14,meteohub,2013-06-26 00:57:00,
2013-06-25 18:02:00,59.0,56.1,29.76,West,264,3.0,5.0,90,0.16,,,0.16,meteohub,2013-06-26 01:02:00,
2013-06-25 18:07:00,59.0,56.3,29.76,West,263,1.0,7.0,91,0.17,,,0.17,meteohub,2013-06-26 01:07:00,
2013-06-25 18:12:00,58.8,56.5,29.76,West,267,2.0,7.0,92,0.18,,,0.18,meteohub,2013-06-26 01:12:00,
2013-06-25 18:17:00,58.8,56.8,29.76,WNW,283,3.0,5.0,93,0.18,,,0.18,meteohub,2013-06-26 01:17:00,
2013-06-25 18:22:00,58.8,56.8,29.76,WSW,255,0.0,4.0,93,0.18,,,0.18,meteohub,2013-06-26 01:22:00,
2013-06-25 18:27:00,59.2,57.4,29.76,WSW,256,0.0,4.0,94,0.17,,,0.18,meteohub,2013-06-26 01:27:00,
2013-06-25 18:32:00,59.2,57.4,29.76,West,269,0.0,4.0,94,0.16,,,0.18,meteohub,2013-06-26 01:32:00,
2013-06-25 18:37:00,59.4,57.6,29.76,WNW,297,0.0,2.0,94,0.12,,,0.18,meteohub,2013-06-26 01:37:00,
2013-06-25 18:42:00,59.4,57.6,29.76,WSW,257,1.0,2.0,94,0.09,,,0.18,meteohub,2013-06-26 01:42:00,
2013-06-25 18:47:00,59.5,57.6,29.76,NW,322,0.0,3.0,93,0.06,,,0.18,meteohub,2013-06-26 01:47:00,
2013-06-25 18:52:00,59.5,57.6,29.77,West,279,0.0,3.0,93,0.05,,,0.18,meteohub,2013-06-26 01:52:00,
2013-06-25 18:57:00,59.5,57.7,29.77,West,267,0.0,5.0,94,0.03,,,0.18,meteohub,2013-06-26 01:57:00,
2013-06-25 19:02:00,59.5,57.6,29.77,West,267,0.0,5.0,93,0.02,,,0.18,meteohub,2013-06-26 02:02:00,
2013-06-25 19:07:00,59.4,57.6,29.77,WNW,283,0.0,2.0,94,0.01,,,0.18,meteohub,2013-06-26 02:07:00,
2013-06-25 19:12:00,59.2,57.2,29.77,West,274,0.0,1.0,93,0.00,,,0.18,meteohub,2013-06-26 02:12:00,
2013-06-25 19:17:00,59.2,57.4,29.77,West,276,0.0,1.0,94,0.00,,,0.18,meteohub,2013-06-26 02:17:00,
2013-06-25 19:22:00,59.2,57.4,29.77,WNW,302,0.0,1.0,94,0.00,,,0.18,meteohub,2013-06-26 02:22:00,
2013-06-25 19:27:00,59.2,57.4,29.77,WSW,240,0.0,1.0,94,0.00,,,0.18,meteohub,2013-06-26 02:27:00,
2013-06-25 19:32:00,59.4,57.9,29.78,WSW,239,0.0,1.0,95,0.00,,,0.18,meteohub,2013-06-26 02:32:00,
2013-06-25 19:37:00,59.4,57.9,29.78,WSW,240,0.0,1.0,95,0.01,,,0.19,meteohub,2013-06-26 02:37:00,
2013-06-25 19:42:00,59.4,57.9,29.77,WSW,239,0.0,0.0,95,0.01,,,0.19,meteohub,2013-06-26 02:42:00,
2013-06-25 19:47:00,59.4,57.9,29.78,WSW,248,0.0,1.0,95,0.01,,,0.19,meteohub,2013-06-26 02:47:00,
2013-06-25 19:52:00,59.4,57.9,29.78,WSW,248,0.0,1.0,95,0.02,,,0.20,meteohub,2013-06-26 02:52:00,
2013-06-25 19:57:00,59.0,57.6,29.79,West,269,0.0,1.0,95,0.07,,,0.25,meteohub,2013-06-26 02:57:00,
2013-06-25 20:02:00,58.6,57.2,29.79,South,170,0.0,1.0,95,0.15,,,0.33,meteohub,2013-06-26 03:02:00,
2013-06-25 20:07:00,58.3,56.8,29.79,SW,217,0.0,4.0,95,0.22,,,0.39,meteohub,2013-06-26 03:07:00,
2013-06-25 20:12:00,58.3,57.2,29.79,SSE,155,0.0,4.0,96,0.23,,,0.41,meteohub,2013-06-26 03:12:00,
2013-06-25 20:17:00,57.9,56.8,29.79,SSE,160,0.0,4.0,96,0.24,,,0.42,meteohub,2013-06-26 03:17:00,
2013-06-25 20:22:00,58.1,57.0,29.79,West,279,0.0,1.0,96,0.24,,,0.42,meteohub,2013-06-26 03:22:00,
2013-06-25 20:27:00,58.3,57.2,29.79,WSW,253,0.0,1.0,96,0.25,,,0.43,meteohub,2013-06-26 03:27:00,
2013-06-25 20:32:00,58.3,57.4,29.79,WSW,253,0.0,1.0,97,0.24,,,0.43,meteohub,2013-06-26 03:32:00,
2013-06-25 20:37:00,58.3,57.2,29.79,WSW,252,0.0,1.0,96,0.24,,,0.43,meteohub,2013-06-26 03:37:00,
2013-06-25 20:42:00,58.3,57.4,29.79,West,274,0.0,1.0,97,0.24,,,0.43,meteohub,2013-06-26 03:42:00,
2013-06-25 20:47:00,58.5,57.6,29.79,West,281,0.0,1.0,97,0.23,,,0.43,meteohub,2013-06-26 03:47:00,
2013-06-25 20:52:00,58.3,57.2,29.79,SE,138,1.0,1.0,96,0.23,,,0.43,meteohub,2013-06-26 03:52:00,
2013-06-25 20:57:00,58.5,57.6,29.79,West,273,0.0,2.0,97,0.15,,,0.43,meteohub,2013-06-26 03:57:00,
2013-06-25 21:01:00,58.3,57.2,29.79,SE,139,0.0,2.0,96,0.07,,,0.43,meteohub,2013-06-26 04:01:00,
2013-06-25 21:02:00,58.5,57.4,29.79,SE,139,0.0,2.0,96,0.07,,,0.43,meteohub,2013-06-26 04:02:00,
2013-06-25 21:04:00,58.3,57.2,29.80,SE,139,0.0,2.0,96,0.07,,,0.43,meteohub,2013-06-26 04:04:00,
2013-06-25 21:05:00,58.3,57.2,29.79,SE,139,0.0,2.0,96,0.07,,,0.43,meteohub,2013-06-26 04:05:00,
2013-06-25 21:10:00,58.3,57.2,29.80,NW,311,0.0,2.0,96,0.03,,,0.43,meteohub,2013-06-26 04:10:00,
2013-06-25 21:15:00,58.3,57.2,29.80,NW,322,0.0,1.0,96,0.01,,,0.43,meteohub,2013-06-26 04:15:00,
2013-06-25 21:20:00,58.1,56.7,29.80,East,97,1.0,3.0,95,0.01,,,0.43,meteohub,2013-06-26 04:20:00,
2013-06-25 21:25:00,57.9,56.5,29.81,SSW,211,1.0,3.0,95,0.01,,,0.43,meteohub,2013-06-26 04:25:00,
2013-06-25 21:30:00,57.7,56.3,29.81,East,86,4.0,4.0,95,0.00,,,0.43,meteohub,2013-06-26 04:30:00,
2013-06-25 21:35:00,57.9,56.5,29.81,South,191,0.0,4.0,95,0.00,,,0.43,meteohub,2013-06-26 04:35:00,
2013-06-25 21:40:00,57.7,56.3,29.81,ESE,120,0.0,8.0,95,0.00,,,0.43,meteohub,2013-06-26 04:40:00,
2013-06-25 21:45:00,57.7,56.3,29.81,ENE,71,2.0,8.0,95,0.00,,,0.43,meteohub,2013-06-26 04:45:00,
2013-06-25 21:50:00,57.7,56.3,29.82,NW,321,1.0,8.0,95,0.00,,,0.43,meteohub,2013-06-26 04:50:00,
2013-06-25 21:55:00,57.7,56.3,29.82,SSW,212,0.0,5.0,95,0.00,,,0.43,meteohub,2013-06-26 04:55:00,
2013-06-25 22:00:00,57.6,56.1,29.82,ESE,103,0.0,7.0,95,0.00,,,0.43,meteohub,2013-06-26 05:00:00,
2013-06-25 22:05:00,57.6,56.1,29.83,North,1,0.0,7.0,95,0.00,,,0.43,meteohub,2013-06-26 05:05:00,
2013-06-25 22:10:00,57.6,56.5,29.82,WNW,291,2.0,3.0,96,0.00,,,0.43,meteohub,2013-06-26 05:10:00,
2013-06-25 22:15:00,57.6,56.1,29.83,SSE,157,0.0,5.0,95,0.00,,,0.43,meteohub,2013-06-26 05:15:00,
2013-06-25 22:20:00,57.4,55.9,29.83,SSE,167,0.0,5.0,95,0.00,,,0.43,meteohub,2013-06-26 05:20:00,
2013-06-25 22:25:00,57.4,55.9,29.83,West,281,0.0,4.0,95,0.00,,,0.43,meteohub,2013-06-26 05:25:00,
2013-06-25 22:30:00,57.2,55.8,29.83,SE,145,0.0,4.0,95,0.00,,,0.43,meteohub,2013-06-26 05:30:00,
2013-06-25 22:35:00,57.2,55.8,29.83,SSW,197,0.0,4.0,95,0.00,,,0.43,meteohub,2013-06-26 05:35:00,
2013-06-25 22:40:00,57.2,55.8,29.83,West,271,0.0,4.0,95,0.00,,,0.43,meteohub,2013-06-26 05:40:00,
2013-06-25 22:45:00,57.0,55.6,29.83,South,183,0.0,4.0,95,0.00,,,0.43,meteohub,2013-06-26 05:45:00,
2013-06-25 22:50:00,56.8,55.4,29.83,NW,317,0.0,4.0,95,0.00,,,0.43,meteohub,2013-06-26 05:50:00,
2013-06-25 22:56:00,56.8,55.4,29.83,WNW,291,0.0,4.0,95,0.00,,,0.43,meteohub,2013-06-26 05:56:00,
2013-06-25 23:01:00,56.8,55.4,29.83,SW,217,1.0,2.0,95,0.00,,,0.43,meteohub,2013-06-26 06:01:00,
2013-06-25 23:06:00,56.7,55.2,29.83,SSW,212,0.0,2.0,95,0.00,,,0.43,meteohub,2013-06-26 06:06:00,
2013-06-25 23:11:00,56.7,55.2,29.84,WSW,242,0.0,2.0,95,0.00,,,0.43,meteohub,2013-06-26 06:11:00,
2013-06-25 23:16:00,56.7,55.2,29.84,SSW,205,0.0,3.0,95,0.00,,,0.43,meteohub,2013-06-26 06:16:00,
2013-06-25 23:21:00,56.7,55.2,29.84,WNW,293,1.0,4.0,95,0.00,,,0.43,meteohub,2013-06-26 06:21:00,
2013-06-25 23:26:00,56.8,55.2,29.84,WSW,252,0.0,5.0,94,0.00,,,0.43,meteohub,2013-06-26 06:26:00,
2013-06-25 23:31:00,56.8,55.4,29.84,West,266,3.0,5.0,95,0.00,,,0.43,meteohub,2013-06-26 06:31:00,
2013-06-25 23:36:00,56.8,55.2,29.84,WSW,240,0.0,6.0,94,0.00,,,0.43,meteohub,2013-06-26 06:36:00,
2013-06-25 23:41:00,56.7,55.0,29.84,SW,228,0.0,6.0,94,0.00,,,0.43,meteohub,2013-06-26 06:41:00,
2013-06-25 23:46:00,56.7,55.2,29.84,West,278,1.0,6.0,95,0.00,,,0.43,meteohub,2013-06-26 06:46:00,
2013-06-25 23:51:00,56.5,55.0,29.84,West,278,0.0,2.0,95,0.00,,,0.43,meteohub,2013-06-26 06:51:00,
2013-06-25 23:56:00,56.5,55.0,29.84,West,278,0.0,2.0,95,0.00,,,0.43,meteohub,2013-06-26 06:56:00,